Regional Weather Roundup
Issued by NWS Albany, NY

Home | Current Version | Previous Version | Text Only | Print | Product List | Glossary On
Versions: 1 2 3 4 5 6 7 8 9 10 11 12 13 14 15 16 17 18 19 20 21 22 23 24 25 26 27 28 29 30 31 32 33 34 35 36 37 38 39 40 41 42 43 44 45 46 47 48 49 50
000
ASUS41 KALY 262110
RWRALY

NEW YORK STATE HOURLY WEATHER ROUNDUP
NATIONAL WEATHER SERVICE ALBANY NY
500 PM EDT TUE MAY 26 2015

NOTE: "FAIR" INDICATES FEW OR NO CLOUDS BELOW 12,000 FEET WITH NO
SIGNIFICANT WEATHER AND/OR NO OBSTRUCTIONS TO VISIBILITY.

NYZ032-033-038>043-046>054-057>066-NYZ062>081-262200-
EAST


CITY           SKY/WX    TMP DP  RH WIND       PRES   REMARKS
ALBANY         PTSUNNY   85  64  49 SW6       30.10R
GLENS FALLS    PTSUNNY   85  62  46 SW9G21    30.06R
POUGHKEEPSIE   PTSUNNY   83  67  58 W3        30.11F
NEWBURGH       PTSUNNY   82  70  65 VRB6      30.14F
MONTGOMERY     PTSUNNY   82  69  64 N7        30.13S
WHITE PLAINS   PTSUNNY   81  62  52 S9G18     30.16R
ISLIP          PTSUNNY   71  60  68 SW17G26   30.18S
NEW YORK CITY  PTSUNNY   82  60  47 S14       30.14S
CENTRAL PARK   MOSUNNY   85  61  44 VRB6      30.17S
$$

NYZ005>009-017-018-044>046-055-056-262200-
CENTRAL


CITY           SKY/WX    TMP DP  RH WIND       PRES   REMARKS
FULTON         PTSUNNY   82  65  56 S8        30.07F
SYRACUSE       PTSUNNY   84  63  49 SW12      30.07F
ROME           CLOUDY    80  61  52 SW8       30.10S
ELMIRA         CLOUDY    80  66  62 SW7       30.11F
BINGHAMTON     CLOUDY    73  65  75 S7        30.17S
MONTICELLO     PTSUNNY   81  64  57 S10G17    30.18S
$$

NYZ026>034-041>043-262200-
NORTH


CITY           SKY/WX    TMP DP  RH WIND       PRES   REMARKS
WATERTOWN      MOSUNNY   80  65  59 W10       30.05F
FORT DRUM      NOT AVBL
MASSENA        SUNNY     84  61  45 SW17G24   30.01F
SARANAC LAKE   MOSUNNY   80  55  42 W12G23    30.09
PLATTSBURGH    MOSUNNY   87  55  33 SW8G16    30.01R
$$

NYZ001>004-010>016-019>021-262200-
WEST


CITY           SKY/WX    TMP DP  RH WIND       PRES   REMARKS
NIAGARA FALLS  PTSUNNY   81  63  54 SW14G24   30.02F
BUFFALO        PTSUNNY   78  63  59 S9        30.04F
DUNKIRK        MOSUNNY   75  64  68 N5        30.04F
JAMESTOWN      PTSUNNY   75  61  60 S12G20    30.11F
WELLSVILLE     CLOUDY    77  60  55 SW9G22    30.16F
ROCHESTER      CLOUDY    81  65  58 S6        30.05F
PENN YAN       PTSUNNY   83  64  52 S14       30.09F
$$

             KEY
       WCI = WIND CHILL INDEX
       VSB = VISIBILITY
       HX  = HEAT INDEX
$$


USA.gov is the U.S. government's official web portal to all federal, state and local government web resources and services.